User: anonymous   Login
Location: Cannifist
(18.2333°N, 63.0167°W)
Time: 07:42:00
(UTC+00:00)
Language:

COSMOS 2487 - Orbit

View from above orbital plane
View from above orbital plane
View from above satellite
View from above satellite

Ground track
Ground track

The orbit data is extracted from the following two-line orbital elements,

1 39194U 13032A   20156.86333254 +.00002903 +00000-0 +71353-4 0  9990
2 39194 074.7119 069.9241 0003956 255.2439 104.8335 15.41105955388088
Epoch (UTC): 04 June 2020 20:43:11
Eccentricity: 0.0003956
inclination: 74.7119°
perigee height: 440 km
apogee height: 445 km
right ascension of ascending node: 69.9241°
argument of perigee: 255.2439°
revolutions per day: 15.41105955
mean anomaly at epoch: 104.8335°
orbit number at epoch: 38808

The dashed part of the orbit path shows where the satellite is in the earth's shadow,  

DLR